Weather History for KBYY - April, 2013

Change the Weather History Date:

Wednesday, April 17, 2013

  Actual Average (KLBX) Record (KLBX)
Temperature  
Mean Temperature 76 °F -  
Max Temperature 79 °F 76 °F 86 °F (2003)
Min Temperature 73 °F 61 °F 37 °F (1999)
Cooling Degree Days 11    
Growing Degree Days 26 (Base 50)    
Moisture  
Dew Point 75 °F    
Average Humidity 96    
Maximum Humidity 100    
Minimum Humidity 83    
Precipitation  
Precipitation 0.00 in - - ()
Sea Level Pressure  
Sea Level Pressure 29.85 in    
Wind  
Wind Speed 14 mph (SE)    
Max Wind Speed 22 mph    
Max Gust Speed 30 mph    
Visibility 6 miles    
Events      
Averages and records for this station are not official NWS values.
T = Trace of Precipitation, MM = Missing Value Source: NWS Daily Summary

Daily Weather History Graph

Daily Weather History Graph

Search for Another Location

Airport or City:

Trip Planner

Search our weather history database for the weather conditions in past years. The results will help you decide how hot, cold, wet, or windy it might be!

Date:

Astronomy

Apr. 17, 2013 Rise Set
Actual Time 6:55 AM CDT 7:51 PM CDT
Civil Twilight 6:30 AM CDT 8:15 PM CDT
Nautical Twilight 6:02 AM CDT 8:44 PM CDT
Astronomical Twilight 5:32 AM CDT 9:13 PM CDT
Moon 12:19 PM CDT (4/17) 1:19 AM CDT (4/17)
Length of Visible Light 13h 44m
Length of Day
12h 55m
Waxing Crescent, 42% of the Moon is Illuminated
Apr 17
Waxing Crescent
Apr 18
First Quarter
Apr 25
Full
May 2
Last Quarter
May 9
New

Hourly Weather History & Observations

Time (CDT) Temp. Dew Point Humidity Pressure Visibility Wind Dir Wind Speed Gust Speed Precip Events Conditions
12:15 AM 75.2 °F 75.2 °F 100% 29.91 in 7.0 mi SE 12.7 mph 19.6 mph N/A   Overcast
12:35 AM 75.2 °F 75.2 °F 100% 29.91 in 7.0 mi SE 15.0 mph 19.6 mph N/A   Overcast
12:55 AM 75.2 °F 75.2 °F 100% 29.92 in 7.0 mi SE 17.3 mph 21.9 mph N/A   Overcast
1:15 AM 75.0 °F 75.0 °F 100% 29.92 in 5.0 mi SE 17.3 mph 20.7 mph N/A   Overcast
1:35 AM 74.8 °F 74.8 °F 100% 29.92 in 5.0 mi SE 11.5 mph 17.3 mph N/A   Overcast
1:55 AM 74.8 °F 74.8 °F 100% 29.93 in 5.0 mi SE 12.7 mph - N/A   Overcast
2:15 AM 74.7 °F 74.7 °F 100% 29.93 in 5.0 mi SE 10.4 mph - N/A   Overcast
2:35 AM 74.7 °F 74.7 °F 100% 29.92 in 5.0 mi SE 12.7 mph - N/A   Overcast
2:55 AM 74.5 °F 74.5 °F 100% 29.91 in 3.0 mi SE 11.5 mph 16.1 mph N/A   Overcast
3:15 AM 74.1 °F 74.1 °F 100% 29.90 in 4.0 mi SE 9.2 mph - N/A   Overcast
3:35 AM 73.9 °F 73.9 °F 100% 29.91 in 5.0 mi SE 10.4 mph - N/A   Overcast
3:55 AM 73.8 °F 73.8 °F 100% 29.90 in 4.0 mi SE 9.2 mph - N/A   Overcast
4:15 AM 73.4 °F 73.4 °F 100% 29.90 in 5.0 mi SE 10.4 mph - N/A   Overcast
4:35 AM 73.8 °F 73.8 °F 100% 29.91 in 5.0 mi SE 10.4 mph - N/A   Overcast
4:55 AM 73.9 °F 73.9 °F 100% 29.90 in 7.0 mi SE 9.2 mph - N/A   Overcast
5:15 AM 73.9 °F 73.9 °F 100% 29.90 in 7.0 mi SE 10.4 mph - N/A   Overcast
5:35 AM 73.9 °F 73.9 °F 100% 29.90 in 7.0 mi SE 8.1 mph - N/A   Overcast
5:55 AM 74.3 °F 74.3 °F 100% 29.90 in 7.0 mi ESE 9.2 mph - N/A   Overcast
6:15 AM 74.3 °F 74.3 °F 100% 29.91 in 7.0 mi SE 8.1 mph - N/A   Overcast
6:35 AM 74.3 °F 74.3 °F 100% 29.90 in 5.0 mi SE 9.2 mph - N/A   Overcast
6:55 AM 74.3 °F 74.3 °F 100% 29.90 in 7.0 mi SE 9.2 mph - N/A   Overcast
7:15 AM 74.5 °F 74.5 °F 100% 29.90 in 7.0 mi ESE 9.2 mph - N/A   Overcast
7:35 AM 74.5 °F 74.5 °F 100% 29.90 in 5.0 mi ESE 9.2 mph - N/A   Overcast
7:55 AM 74.1 °F 74.1 °F 100% 29.90 in 3.0 mi ESE 9.2 mph - N/A   Overcast
8:15 AM 73.9 °F 73.9 °F 100% 29.91 in 3.0 mi ESE 10.4 mph - N/A   Overcast
8:35 AM 74.3 °F 74.3 °F 100% 29.91 in 4.0 mi ESE 11.5 mph - N/A   Overcast
8:55 AM 74.5 °F 74.5 °F 100% 29.91 in 4.0 mi ESE 9.2 mph 16.1 mph N/A   Overcast
9:15 AM 74.7 °F 74.7 °F 100% 29.90 in 4.0 mi ESE 10.4 mph - N/A   Overcast
9:35 AM 74.7 °F 74.7 °F 100% 29.90 in 4.0 mi ESE 12.7 mph - N/A   Overcast
9:55 AM 74.8 °F 74.8 °F 100% 29.89 in 3.0 mi ESE 11.5 mph - N/A   Overcast
10:15 AM 75.0 °F 75.0 °F 100% 29.90 in 3.0 mi ESE 10.4 mph - N/A   Overcast
10:35 AM 75.4 °F 75.4 °F 100% 29.90 in 4.0 mi SE 11.5 mph - N/A   Overcast
10:55 AM 75.7 °F 75.7 °F 100% 29.89 in 5.0 mi SE 15.0 mph 19.6 mph N/A   Overcast
11:15 AM 76.8 °F 76.8 °F 100% 29.89 in 7.0 mi ESE 12.7 mph 18.4 mph N/A   Overcast
11:35 AM 77.5 °F 77.5 °F 100% 29.89 in 7.0 mi ESE 15.0 mph 20.7 mph N/A   Overcast
11:55 AM 78.1 °F 78.1 °F 100% 29.89 in 7.0 mi SE 15.0 mph 18.4 mph N/A   Overcast
12:15 PM 78.6 °F 77.5 °F 96% 29.88 in 7.0 mi SE 12.7 mph 17.3 mph N/A   Overcast
12:35 PM 79.0 °F 73.8 °F 84% 29.87 in 7.0 mi SE 15.0 mph 20.7 mph N/A   Overcast
12:55 PM 79.0 °F 74.3 °F 85% 29.86 in 5.0 mi SE 12.7 mph 19.6 mph N/A   Haze
1:15 PM 78.6 °F 74.3 °F 87% 29.86 in 5.0 mi SE 17.3 mph - N/A   Haze
1:35 PM 78.3 °F 74.1 °F 87% 29.85 in 5.0 mi ESE 15.0 mph 20.7 mph N/A   Overcast
1:55 PM 78.3 °F 74.1 °F 87% 29.84 in 5.0 mi ESE 16.1 mph 21.9 mph N/A   Haze
2:15 PM 78.3 °F 74.3 °F 88% 29.83 in 5.0 mi ESE 17.3 mph 24.2 mph N/A   Overcast
2:35 PM 78.3 °F 74.1 °F 87% 29.82 in 5.0 mi SE 17.3 mph 23.0 mph N/A   Overcast
2:55 PM 78.3 °F 74.1 °F 87% 29.81 in 5.0 mi SE 15.0 mph 24.2 mph N/A   Haze
3:35 PM 78.8 °F 73.9 °F 85% 29.80 in 5.0 mi SE 18.4 mph 26.5 mph N/A   Haze
3:55 PM 78.8 °F 73.4 °F 83% 29.79 in 5.0 mi SE 16.1 mph 24.2 mph N/A   Haze
4:15 PM 78.8 °F 73.9 °F 85% 29.78 in 5.0 mi SE 17.3 mph 26.5 mph N/A   Haze
4:35 PM 78.6 °F 73.8 °F 85% 29.77 in 5.0 mi SE 19.6 mph 24.2 mph N/A   Haze
4:55 PM 78.3 °F 73.8 °F 86% 29.77 in 5.0 mi SE 20.7 mph 27.6 mph N/A   Overcast
5:15 PM 78.1 °F 73.8 °F 86% 29.76 in 5.0 mi SE 19.6 mph 28.8 mph N/A   Overcast
5:35 PM 77.9 °F 73.6 °F 86% 29.77 in 5.0 mi SE 19.6 mph 26.5 mph N/A   Overcast
5:55 PM 77.4 °F 73.4 °F 88% 29.77 in 5.0 mi SE 21.9 mph 26.5 mph N/A   Overcast
6:15 PM 77.2 °F 73.4 °F 88% 29.76 in 5.0 mi SE 19.6 mph 26.5 mph N/A   Overcast
6:35 PM 77.2 °F 73.4 °F 88% 29.75 in 5.0 mi SE 17.3 mph 26.5 mph N/A   Overcast
6:55 PM 77.0 °F 73.6 °F 89% 29.75 in 5.0 mi SE 19.6 mph 28.8 mph N/A   Overcast
7:15 PM 76.6 °F 73.9 °F 91% 29.75 in 5.0 mi SE 19.6 mph 27.6 mph N/A   Overcast
7:35 PM 76.6 °F 73.9 °F 91% 29.75 in 7.0 mi SE 18.4 mph 26.5 mph N/A   Overcast
7:55 PM 76.3 °F 74.3 °F 94% 29.76 in 7.0 mi SE 18.4 mph 24.2 mph N/A   Overcast
8:15 PM 76.1 °F 76.1 °F 100% 29.75 in 7.0 mi SE 17.3 mph 27.6 mph N/A   Overcast
8:35 PM 76.1 °F 76.1 °F 100% 29.76 in 7.0 mi SE 18.4 mph 26.5 mph N/A   Overcast
8:55 PM 75.9 °F 75.9 °F 100% 29.76 in 7.0 mi SE 15.0 mph 26.5 mph N/A   Overcast
9:15 PM 75.7 °F 75.7 °F 100% 29.77 in 7.0 mi SE 17.3 mph 26.5 mph N/A   Overcast
9:35 PM 75.7 °F 75.7 °F 100% 29.78 in 7.0 mi SE 21.9 mph 26.5 mph N/A   Overcast
9:55 PM 75.7 °F 75.7 °F 100% 29.77 in 7.0 mi SE 17.3 mph 26.5 mph N/A   Overcast
10:15 PM 75.6 °F 75.6 °F 100% 29.77 in 7.0 mi SE 17.3 mph 26.5 mph N/A   Overcast
10:35 PM 75.4 °F 75.4 °F 100% 29.77 in 7.0 mi SE 17.3 mph 26.5 mph N/A   Overcast
10:55 PM 75.4 °F 75.4 °F 100% 29.75 in 7.0 mi SE 17.3 mph 29.9 mph N/A   Overcast
11:15 PM 75.4 °F 75.4 °F 100% 29.77 in 7.0 mi SE 16.1 mph 27.6 mph N/A   Overcast
11:35 PM 75.4 °F 75.4 °F 100% 29.78 in 7.0 mi SSE 15.0 mph 20.7 mph N/A   Overcast
11:55 PM 75.2 °F 75.2 °F 100% 29.78 in 7.0 mi SE 16.1 mph 24.2 mph N/A   Overcast